K7JKM Weather Reports


time (UTC)temp
C
wind
direction
speed
KPH
gust
KPH
rain 1hr
cm
rain 24hr
cm
rain mn
cm
humidity
%
barometer
mb
20260502190030 15 304 0.0 0.0 0.00 0.00 0.00 59 1016.2
20260502184528 14 347 0.0 0.0 0.00 0.00 0.00 57 1016.4
20260502183026 13 113 0.0 3.2 0.00 0.00 0.00 62 1016.5
20260502181507 12 68 0.0 0.0 0.00 0.00 0.00 63 1016.4
20260502163011 12 263 0.0 0.0 0.00 0.00 0.00 60 1016.8
20260502161503 11 288 0.0 0.0 0.00 0.00 0.00 62 1016.8
20260502151516 10 304 0.0 0.0 0.00 0.00 0.00 64 1016.7
20260502123101 8 312 0.0 1.6 0.00 0.00 0.00 66 1016.6
20260502121527 8 295 0.0 1.6 0.00 0.00 0.00 66 1016.7
20260502114503 8 291 0.0 0.0 0.00 0.00 0.00 67 1016.7
20260502113002 8 258 0.0 0.0 0.00 0.00 0.00 67 1016.7
20260502111511 8 258 0.0 0.0 0.00 0.00 0.00 67 1016.8
20260502110011 8 258 0.0 0.0 0.00 0.00 0.00 67 1016.5
20260502104513 8 258 0.0 0.0 0.00 0.00 0.00 67 1016.7
20260502103012 9 283 0.0 0.0 0.00 0.00 0.00 67 1016.7
20260502101510 10 283 0.0 0.0 0.00 0.00 0.00 66 1016.7
20260502091516 10 292 0.0 0.0 0.00 0.00 0.00 66 1016.9
20260502071526 11 301 0.0 8.0 0.00 0.00 0.00 64 1017.7
20260502070022 11 296 0.0 4.8 0.00 0.00 0.00 64 1017.3
20260502064517 11 285 0.0 3.2 0.00 0.00 0.00 65 1017.5
20260502063015 11 304 0.0 4.8 0.00 0.00 0.00 65 1017.5
20260502061524 11 191 0.0 3.2 0.00 0.00 0.00 64 1017.5
20260502060022 11 303 0.0 6.4 0.00 0.00 0.00 64 1017.3
20260502054526 11 277 0.0 6.4 0.00 0.00 0.00 64 1017.2
20260502053023 11 101 0.0 6.4 0.00 0.00 0.00 64 1017.1
20260502051524 11 266 0.0 4.8 0.00 0.00 0.00 65 1017.1
20260502050031 11 68 0.0 8.0 0.00 0.00 0.00 65 1017.0
20260502044515 11 13 0.0 8.0 0.00 0.00 0.00 64 1016.9
20260502043028 11 300 0.0 8.0 0.00 0.00 0.00 64 1016.7
20260502041530 11 316 0.0 9.7 0.00 0.00 0.00 64 1016.6
20260502040012 12 295 0.0 8.0 0.00 0.00 0.00 63 1016.3
20260502034510 12 321 3.2 14.5 0.00 0.00 0.00 63 1016.3
20260502033008 12 49 1.6 12.9 0.00 0.00 0.00 62 1015.9
20260502031503 12 290 3.2 12.9 0.00 0.00 0.00 62 1015.8
20260502030010 13 305 1.6 14.5 0.00 0.00 0.00 61 1015.8
20260502024503 13 297 1.6 11.3 0.00 0.00 0.00 60 1015.6
20260502023013 13 263 3.2 17.7 0.00 0.00 0.00 59 1015.5
20260502021511 14 323 1.6 12.9 0.00 0.00 0.00 57 1015.4
20260502020008 15 196 0.0 12.9 0.00 0.00 0.00 57 1015.3
20260502014505 16 264 1.6 12.9 0.00 0.00 0.00 55 1015.3
20260502013003 16 314 1.6 12.9 0.00 0.00 0.00 54 1015.3
20260502011507 17 346 3.2 11.3 0.00 0.00 0.00 53 1015.3
20260502010005 17 293 1.6 12.9 0.00 0.00 0.00 53 1015.3
20260502004540 18 320 4.8 12.9 0.00 0.00 0.00 50 1015.3
20260502003014 19 319 1.6 11.3 0.00 0.00 0.00 49 1015.3
20260502001516 20 86 1.6 14.5 0.00 0.00 0.00 47 1015.2
20260502000009 20 272 4.8 14.5 0.00 0.00 0.00 46 1015.2
20260501234507 21 8 3.2 9.7 0.00 0.00 0.00 45 1015.2
20260501233003 21 323 1.6 11.3 0.00 0.00 0.00 44 1015.3
20260501231506 21 288 0.0 8.0 0.00 0.00 0.00 43 1015.3
20260501230022 21 221 1.6 12.9 0.00 0.00 0.00 43 1015.3
20260501224517 22 293 3.2 12.9 0.00 0.00 0.00 42 1015.5
20260501223015 23 9 1.6 11.3 0.00 0.00 0.00 39 1015.5
20260501221515 22 302 0.0 4.8 0.00 0.00 0.00 40 1015.7
20260501220012 22 349 0.0 3.2 0.00 0.00 0.00 41 1015.9
20260501214513 22 203 0.0 4.8 0.00 0.00 0.00 41 1016.0
20260501213040 23 77 0.0 1.6 0.00 0.00 0.00 40 1016.0
20260501211527 22 302 0.0 1.6 0.00 0.00 0.00 41 1016.1
20260501210037 22 347 0.0 6.4 0.00 0.00 0.00 41 1016.3
20260501204523 21 244 0.0 6.4 0.00 0.00 0.00 43 1016.4
20260501203016 20 154 0.0 1.6 0.00 0.00 0.00 45 1016.6
20260501201519 20 333 0.0 4.8 0.00 0.00 0.00 48 1016.8
20260501200017 20 59 0.0 6.4 0.00 0.00 0.00 46 1017.0
20260501194535 20 229 0.0 3.2 0.00 0.00 0.00 44 1017.2
20260501193029 20 297 0.0 3.2 0.00 0.00 0.00 47 1017.2
20260501191530 21 316 0.0 4.8 0.00 0.00 0.00 45 1017.3